,,,PA_Meas_PMT16A,,PR_Meas_QMR101_102,,RH_Meas_QMH101,,SR_Meas_QMS101,,TA_Meas_QMH101,,GenWind,,GenWind,
date,time,status,PA,status,PR,status,RH,status,SR,status,TA,status,DirAvg,status,SpdAvg,
2010-04-09, 00:00:05,VALID,1001.68,VALID,0,VALID,92.5854,VALID,0,VALID,24.0134,VALID,327,VALID,0,
2010-04-09, 00:01:05,VALID,1001.65,VALID,0,VALID,92.4863,VALID,0,VALID,23.9939,VALID,327,VALID,0,
2010-04-09, 00:02:05,VALID,1001.62,VALID,0,VALID,92.5015,VALID,0,VALID,23.9336,VALID,327,VALID,0,
2010-04-09, 00:03:05,VALID,1001.64,VALID,0,VALID,92.6999,VALID,0,VALID,23.9336,VALID,327,VALID,0,
2010-04-09, 00:04:05,VALID,1001.6,VALID,0,VALID,92.8601,VALID,0,VALID,23.9939,VALID,327,VALID,0,
2010-04-09, 00:05:05,VALID,1001.57,VALID,0,VALID,92.9517,VALID,0,VALID,23.9921,VALID,327,VALID,0,
2010-04-09, 00:06:05,VALID,1001.62,VALID,0,VALID,92.8754,VALID,0,VALID,23.9726,VALID,25,VALID,0.767969,
2010-04-09, 00:07:05,VALID,1001.57,VALID,0,VALID,92.9059,VALID,0,VALID,23.9726,VALID,25,VALID,0.816406,
2010-04-09, 00:08:05,VALID,1001.57,VALID,0,VALID,92.7914,VALID,0,VALID,23.9744,VALID,27,VALID,0.958594,
2010-04-09, 00:09:05,VALID,1001.57,VALID,0,VALID,92.6999,VALID,0,VALID,23.914,VALID,29,VALID,0.866016,
2010-04-09, 00:10:05,VALID,1001.54,VALID,0,VALID,92.6999,VALID,0,VALID,23.9159,VALID,29,VALID,0.717578,
2010-04-09, 00:11:05,VALID,1001.55,VALID,0,VALID,92.6388,VALID,0,VALID,23.8963,VALID,29,VALID,0.673047,
2010-04-09, 00:12:05,VALID,1001.54,VALID,0,VALID,92.5931,VALID,0,VALID,23.8768,VALID,29,VALID,0.641406,
2010-04-09, 00:13:05,VALID,1001.54,VALID,0,VALID,92.532,VALID,0,VALID,23.8378,VALID,29,VALID,0.480859,
2010-04-09, 00:14:05,VALID,1001.54,VALID,0,VALID,92.4939,VALID,0,VALID,23.8183,VALID,29,VALID,0.546094,
2010-04-09, 00:15:05,VALID,1001.53,VALID,0,VALID,92.4405,VALID,0,VALID,23.7597,VALID,31,VALID,0.7875,
2010-04-09, 00:16:05,VALID,1001.52,VALID,0,VALID,92.5931,VALID,0,VALID,23.7402,VALID,35,VALID,1.09844,
2010-04-09, 00:17:05,VALID,1001.48,VALID,0,VALID,92.7762,VALID,0,VALID,23.7793,VALID,40,VALID,1.13828,
2010-04-09, 00:18:05,VALID,1001.48,VALID,0,VALID,92.883,VALID,0,VALID,23.797,VALID,44,VALID,1.01445,
2010-04-09, 00:19:05,VALID,1001.47,VALID,0,VALID,92.9517,VALID,0,VALID,23.7988,VALID,44,VALID,1.02813,
2010-04-09, 00:20:05,VALID,1001.47,VALID,0,VALID,93.0203,VALID,0,VALID,23.8183,VALID,45,VALID,0.796484,
2010-04-09, 00:21:05,VALID,1001.46,VALID,0,VALID,93.0127,VALID,0,VALID,23.8183,VALID,45,VALID,0.553125,
2010-04-09, 00:22:05,VALID,1001.46,VALID,0,VALID,93.028,VALID,0,VALID,23.8165,VALID,45,VALID,0.402734,
2010-04-09, 00:23:05,VALID,1001.41,VALID,0,VALID,92.9517,VALID,0,VALID,23.8183,VALID,45,VALID,0.136719,
2010-04-09, 00:24:05,VALID,1001.42,VALID,0,VALID,92.9288,VALID,0,VALID,23.7793,VALID,45,VALID,0,
2010-04-09, 00:25:05,VALID,1001.41,VALID,0,VALID,92.9059,VALID,0,VALID,23.7579,VALID,45,VALID,0,
2010-04-09, 00:26:05,VALID,1001.42,VALID,0,VALID,92.9593,VALID,0,VALID,23.7597,VALID,45,VALID,0,
2010-04-09, 00:27:05,VALID,1001.42,VALID,0,VALID,92.9288,VALID,0,VALID,23.7579,VALID,45,VALID,0,
2010-04-09, 00:28:05,VALID,1001.43,VALID,0,VALID,92.9669,VALID,0,VALID,23.7384,VALID,45,VALID,0,
2010-04-09, 00:29:05,VALID,1001.39,VALID,0,VALID,93.0508,VALID,0,VALID,23.7793,VALID,45,VALID,0,
2010-04-09, 00:30:05,VALID,1001.4,VALID,0,VALID,93.1348,VALID,0,VALID,23.7775,VALID,45,VALID,0,
2010-04-09, 00:31:05,VALID,1001.38,VALID,0,VALID,93.2263,VALID,0,VALID,23.8378,VALID,46,VALID,0,
2010-04-09, 00:32:05,VALID,1001.36,VALID,0,VALID,93.2263,VALID,0,VALID,23.8573,VALID,47,VALID,0,
2010-04-09, 00:33:05,VALID,1001.36,VALID,0,VALID,93.2034,VALID,0,VALID,23.836,VALID,47,VALID,0,
2010-04-09, 00:34:05,VALID,1001.37,VALID,0,VALID,93.2111,VALID,0,VALID,23.8378,VALID,47,VALID,0.678125,
2010-04-09, 00:35:05,VALID,1001.31,VALID,0,VALID,93.15,VALID,0,VALID,23.836,VALID,47,VALID,0.611328,
2010-04-09, 00:36:05,VALID,1001.29,VALID,0,VALID,93.089,VALID,0,VALID,23.8378,VALID,47,VALID,0.639063,
2010-04-09, 00:37:05,VALID,1001.29,VALID,0,VALID,93.0432,VALID,0,VALID,23.8183,VALID,47,VALID,0.503906,
2010-04-09, 00:38:05,VALID,1001.29,VALID,0,VALID,93.0356,VALID,0,VALID,23.7793,VALID,47,VALID,0.46875,
2010-04-09, 00:39:05,VALID,1001.34,VALID,0,VALID,92.944,VALID,0,VALID,23.7384,VALID,47,VALID,0.308984,
2010-04-09, 00:40:05,VALID,1001.33,VALID,0,VALID,92.9517,VALID,0,VALID,23.7402,VALID,47,VALID,0.241406,
2010-04-09, 00:41:05,VALID,1001.31,VALID,0,VALID,92.883,VALID,0,VALID,23.6817,VALID,47,VALID,0,
2010-04-09, 00:42:05,VALID,1001.32,VALID,0,VALID,92.9059,VALID,0,VALID,23.6604,VALID,47,VALID,0,
2010-04-09, 00:43:05,VALID,1001.33,VALID,0,VALID,92.9822,VALID,0.112286,VALID,23.6604,VALID,47,VALID,0,
2010-04-09, 00:44:05,VALID,1001.3,VALID,0,VALID,93.0737,VALID,0,VALID,23.6799,VALID,109,VALID,0.0589844,
2010-04-09, 00:45:05,VALID,1001.3,VALID,0,VALID,93.089,VALID,0,VALID,23.7012,VALID,145,VALID,0.677344,
2010-04-09, 00:46:05,VALID,1001.27,VALID,0,VALID,93.1271,VALID,0,VALID,23.7207,VALID,145,VALID,0.758594,
2010-04-09, 00:47:05,VALID,1001.26,VALID,0,VALID,93.1882,VALID,0,VALID,23.7402,VALID,152,VALID,0.800781,
2010-04-09, 00:48:05,VALID,1001.25,VALID,0,VALID,93.1958,VALID,0,VALID,23.7597,VALID,158,VALID,0.978125,
2010-04-09, 00:49:05,VALID,1001.22,VALID,0,VALID,93.234,VALID,0.112286,VALID,23.7775,VALID,163,VALID,1,
2010-04-09, 00:50:05,VALID,1001.21,VALID,0,VALID,93.1271,VALID,0,VALID,23.8183,VALID,153,VALID,0.939062,
2010-04-09, 00:51:05,VALID,1001.2,VALID,0,VALID,93.0585,VALID,0,VALID,23.8165,VALID,130,VALID,0.817578,
2010-04-09, 00:52:05,VALID,1001.18,VALID,0,VALID,92.9288,VALID,0,VALID,23.8165,VALID,132,VALID,0.672266,
2010-04-09, 00:53:05,VALID,1001.17,VALID,0,VALID,92.8601,VALID,0,VALID,23.8165,VALID,132,VALID,0.570313,
2010-04-09, 00:54:05,VALID,1001.19,VALID,0,VALID,92.7838,VALID,0,VALID,23.8378,VALID,132,VALID,0.636719,
2010-04-09, 00:55:05,VALID,1001.15,VALID,0,VALID,92.738,VALID,0,VALID,23.797,VALID,132,VALID,0.559766,
2010-04-09, 00:56:05,VALID,1001.13,VALID,0,VALID,92.7075,VALID,0,VALID,23.797,VALID,132,VALID,0.472656,
2010-04-09, 00:57:05,VALID,1001.11,VALID,0,VALID,92.7075,VALID,0,VALID,23.7988,VALID,132,VALID,0.416016,
2010-04-09, 00:58:05,VALID,1001.12,VALID,0,VALID,92.6923,VALID,0,VALID,23.7775,VALID,131,VALID,0.065625,
2010-04-09, 00:59:05,VALID,1001.06,VALID,0,VALID,92.6541,VALID,0,VALID,23.7597,VALID,128,VALID,0.402344,
2010-04-09, 01:00:05,VALID,1001.06,VALID,0,VALID,92.6617,VALID,0,VALID,23.7597,VALID,109,VALID,0.119922,
2010-04-09, 01:01:05,VALID,1001.01,VALID,0,VALID,92.6617,VALID,0,VALID,23.7597,VALID,97,VALID,0.329688,
2010-04-09, 01:02:05,VALID,1001.01,VALID,0,VALID,92.7075,VALID,0,VALID,23.7402,VALID,88,VALID,0.570313,
2010-04-09, 01:03:05,VALID,1001,VALID,0,VALID,92.6846,VALID,0,VALID,23.7207,VALID,79,VALID,0.495703,
2010-04-09, 01:04:05,VALID,1000.98,VALID,0,VALID,92.6846,VALID,0,VALID,23.7207,VALID,78,VALID,0.371875,
2010-04-09, 01:05:05,VALID,1000.95,VALID,0,VALID,92.6465,VALID,0,VALID,23.7012,VALID,78,VALID,0.402344,
2010-04-09, 01:06:05,VALID,1000.93,VALID,0,VALID,92.6388,VALID,0,VALID,23.6817,VALID,78,VALID,0.332422,
2010-04-09, 01:07:05,VALID,1000.94,VALID,0,VALID,92.6694,VALID,0,VALID,23.6622,VALID,78,VALID,0.276563,
2010-04-09, 01:08:05,VALID,1000.89,VALID,0,VALID,92.6999,VALID,0,VALID,23.6817,VALID,78,VALID,0.252734,
2010-04-09, 01:09:05,VALID,1000.9,VALID,0,VALID,92.677,VALID,0,VALID,23.6409,VALID,78,VALID,0,
2010-04-09, 01:10:05,VALID,1000.87,VALID,0,VALID,92.7075,VALID,0,VALID,23.6622,VALID,78,VALID,0,
2010-04-09, 01:11:05,VALID,1000.88,VALID,0,VALID,92.7151,VALID,0,VALID,23.6214,VALID,78,VALID,0,
2010-04-09, 01:12:05,VALID,1000.87,VALID,0,VALID,92.6999,VALID,0,VALID,23.6232,VALID,78,VALID,0,
2010-04-09, 01:13:05,VALID,1000.86,VALID,0,VALID,92.7228,VALID,0,VALID,23.6019,VALID,78,VALID,0,
2010-04-09, 01:14:05,VALID,1000.87,VALID,0,VALID,92.7304,VALID,0,VALID,23.6036,VALID,78,VALID,0,
2010-04-09, 01:15:05,VALID,1000.89,VALID,0,VALID,92.7685,VALID,0,VALID,23.5823,VALID,78,VALID,0,
2010-04-09, 01:16:05,VALID,1000.87,VALID,0,VALID,92.7991,VALID,0.112286,VALID,23.5823,VALID,78,VALID,0,
2010-04-09, 01:17:05,VALID,1000.88,VALID,0,VALID,92.8296,VALID,0,VALID,23.5841,VALID,78,VALID,0,
2010-04-09, 01:18:05,VALID,1000.87,VALID,0,VALID,92.8677,VALID,0,VALID,23.5841,VALID,78,VALID,0,
2010-04-09, 01:19:05,VALID,1000.83,VALID,0,VALID,92.9364,VALID,0,VALID,23.6232,VALID,78,VALID,0,
2010-04-09, 01:20:05,VALID,1000.82,VALID,0,VALID,92.9745,VALID,0,VALID,23.6232,VALID,78,VALID,0,
2010-04-09, 01:21:05,VALID,1000.83,VALID,0,VALID,93.0127,VALID,0,VALID,23.6232,VALID,78,VALID,0,
2010-04-09, 01:22:05,VALID,1000.78,VALID,0,VALID,92.9822,VALID,0,VALID,23.6427,VALID,78,VALID,0,
2010-04-09, 01:23:05,VALID,1000.79,VALID,0,VALID,93.0203,VALID,0,VALID,23.6214,VALID,78,VALID,0,
2010-04-09, 01:24:05,VALID,1000.77,VALID,0,VALID,92.9974,VALID,0,VALID,23.6232,VALID,78,VALID,0,
2010-04-09, 01:25:05,VALID,1000.81,VALID,0,VALID,93.0127,VALID,0,VALID,23.6427,VALID,78,VALID,0.0914062,
2010-04-09, 01:26:05,VALID,1000.83,VALID,0,VALID,93.028,VALID,0,VALID,23.6427,VALID,78,VALID,0,
2010-04-09, 01:27:05,VALID,1000.8,VALID,0,VALID,93.0356,VALID,0,VALID,23.6427,VALID,78,VALID,0,
2010-04-09, 01:28:05,VALID,1000.8,VALID,0,VALID,93.0661,VALID,0,VALID,23.6622,VALID,78,VALID,0,
2010-04-09, 01:29:05,VALID,1000.79,VALID,0,VALID,93.0814,VALID,0,VALID,23.6817,VALID,28,VALID,0,
2010-04-09, 01:30:05,VALID,1000.81,VALID,0,VALID,93.0432,VALID,0,VALID,23.6622,VALID,28,VALID,0,
2010-04-09, 01:31:05,VALID,1000.78,VALID,0,VALID,92.944,VALID,0,VALID,23.6622,VALID,28,VALID,0,
2010-04-09, 01:32:05,VALID,1000.79,VALID,0,VALID,92.944,VALID,0,VALID,23.6409,VALID,27,VALID,0,
2010-04-09, 01:33:04,VALID,1000.73,VALID,0,VALID,92.883,VALID,0,VALID,23.6019,VALID,26,VALID,0,
2010-04-09, 01:34:04,VALID,1000.71,VALID,0,VALID,92.9135,VALID,0,VALID,23.6232,VALID,26,VALID,0,
2010-04-09, 01:35:04,VALID,1000.71,VALID,0,VALID,92.9593,VALID,0,VALID,23.6036,VALID,26,VALID,1.04258,
2010-04-09, 01:36:04,VALID,1000.68,VALID,0,VALID,92.944,VALID,0,VALID,23.5841,VALID,27,VALID,1.02695,
2010-04-09, 01:37:04,VALID,1000.68,VALID,0,VALID,92.9593,VALID,0,VALID,23.5646,VALID,27,VALID,0.677344,
2010-04-09, 01:38:04,VALID,1000.63,VALID,0,VALID,93.0127,VALID,0,VALID,23.5841,VALID,27,VALID,0.5,
2010-04-09, 01:39:04,VALID,1000.63,VALID,0,VALID,93.0356,VALID,0,VALID,23.5433,VALID,27,VALID,0.546094,
2010-04-09, 01:40:04,VALID,1000.63,VALID,0,VALID,93.0966,VALID,0,VALID,23.6036,VALID,27,VALID,0.417188,
2010-04-09, 01:41:04,VALID,1000.62,VALID,0,VALID,93.1119,VALID,0,VALID,23.6036,VALID,27,VALID,0,
2010-04-09, 01:42:04,VALID,1000.6,VALID,0,VALID,93.1577,VALID,0,VALID,23.6232,VALID,27,VALID,0.202344,
2010-04-09, 01:43:04,VALID,1000.57,VALID,0,VALID,93.1577,VALID,0,VALID,23.6427,VALID,27,VALID,0,
2010-04-09, 01:44:04,VALID,1000.56,VALID,0,VALID,93.1958,VALID,0,VALID,23.6214,VALID,27,VALID,0,
2010-04-09, 01:45:04,VALID,1000.55,VALID,0,VALID,93.2034,VALID,0,VALID,23.6409,VALID,27,VALID,0,
2010-04-09, 01:46:04,VALID,1000.54,VALID,0,VALID,93.2111,VALID,0,VALID,23.6817,VALID,27,VALID,0,
2010-04-09, 01:47:04,VALID,1000.52,VALID,0,VALID,93.2034,VALID,0.112286,VALID,23.6604,VALID,27,VALID,0,
2010-04-09, 01:48:04,VALID,1000.55,VALID,0,VALID,93.2263,VALID,0,VALID,23.6799,VALID,27,VALID,0,
2010-04-09, 01:49:04,VALID,1000.52,VALID,0,VALID,93.2568,VALID,0,VALID,23.6799,VALID,38,VALID,0,
2010-04-09, 01:50:04,VALID,1000.51,VALID,0,VALID,93.2645,VALID,0,VALID,23.7207,VALID,41,VALID,0,
2010-04-09, 01:51:04,VALID,1000.53,VALID,0,VALID,93.2568,VALID,0,VALID,23.7402,VALID,46,VALID,0,
2010-04-09, 01:52:04,VALID,1000.49,VALID,0,VALID,93.234,VALID,0,VALID,23.7597,VALID,47,VALID,0,
2010-04-09, 01:53:04,VALID,1000.5,VALID,0,VALID,93.1882,VALID,0,VALID,23.7579,VALID,47,VALID,0,
2010-04-09, 01:54:04,VALID,1000.49,VALID,0,VALID,93.1653,VALID,0.112286,VALID,23.7579,VALID,51,VALID,0,
2010-04-09, 01:55:04,VALID,1000.48,VALID,0,VALID,93.1195,VALID,0,VALID,23.7579,VALID,51,VALID,0,
2010-04-09, 01:56:04,VALID,1000.47,VALID,0,VALID,93.0966,VALID,0,VALID,23.8183,VALID,51,VALID,0,
2010-04-09, 01:57:04,VALID,1000.45,VALID,0,VALID,93.0508,VALID,0,VALID,23.797,VALID,51,VALID,0,
2010-04-09, 01:58:04,VALID,1000.44,VALID,0,VALID,93.0127,VALID,0,VALID,23.8183,VALID,51,VALID,0,
2010-04-09, 01:59:04,VALID,1000.44,VALID,0,VALID,92.9898,VALID,0,VALID,23.797,VALID,51,VALID,0,
2010-04-09, 02:00:04,VALID,1000.44,VALID,0,VALID,92.9822,VALID,0,VALID,23.8165,VALID,149,VALID,0.399219,
2010-04-09, 02:01:04,VALID,1000.45,VALID,0,VALID,92.9898,VALID,0,VALID,23.8378,VALID,172,VALID,0.781641,
2010-04-09, 02:02:04,VALID,1000.44,VALID,0,VALID,92.9745,VALID,0,VALID,23.8555,VALID,155,VALID,0.812891,
2010-04-09, 02:03:04,VALID,1000.45,VALID,0,VALID,92.9135,VALID,0,VALID,23.8555,VALID,154,VALID,0.6875,
2010-04-09, 02:04:04,VALID,1000.44,VALID,0,VALID,92.8601,VALID,0,VALID,23.8963,VALID,155,VALID,0.679688,
2010-04-09, 02:05:04,VALID,1000.38,VALID,0,VALID,92.7914,VALID,0,VALID,23.8945,VALID,153,VALID,0.798828,
2010-04-09, 02:06:04,VALID,1000.36,VALID,0,VALID,92.7609,VALID,0,VALID,23.9549,VALID,154,VALID,0.401172,
2010-04-09, 02:07:04,VALID,1000.38,VALID,0,VALID,92.6694,VALID,0,VALID,23.9531,VALID,146,VALID,0.803906,
2010-04-09, 02:08:04,VALID,1000.37,VALID,0,VALID,92.5549,VALID,0,VALID,23.9921,VALID,148,VALID,0.595703,
2010-04-09, 02:09:04,VALID,1000.4,VALID,0,VALID,92.4405,VALID,0,VALID,24.0134,VALID,148,VALID,0.778906,
2010-04-09, 02:10:04,VALID,1000.34,VALID,0,VALID,92.3642,VALID,0,VALID,24.0116,VALID,150,VALID,0.910937,
2010-04-09, 02:11:04,VALID,1000.36,VALID,0,VALID,92.2955,VALID,0,VALID,24.0311,VALID,165,VALID,1.00117,
2010-04-09, 02:12:04,VALID,1000.37,VALID,0,VALID,92.265,VALID,0,VALID,24.072,VALID,173,VALID,0.928516,
2010-04-09, 02:13:04,VALID,1000.36,VALID,0,VALID,92.1963,VALID,0,VALID,24.0897,VALID,191,VALID,1.20313,
2010-04-09, 02:14:04,VALID,1000.36,VALID,0,VALID,92.0666,VALID,0,VALID,24.15,VALID,187,VALID,1.58008,
2010-04-09, 02:15:04,VALID,1000.38,VALID,0,VALID,91.8301,VALID,0,VALID,24.1891,VALID,176,VALID,1.30508,
2010-04-09, 02:16:04,VALID,1000.33,VALID,0,VALID,91.6928,VALID,0,VALID,24.2281,VALID,178,VALID,1.31992,
2010-04-09, 02:17:04,VALID,1000.32,VALID,0,VALID,91.4715,VALID,0,VALID,24.2671,VALID,178,VALID,1.33789,
2010-04-09, 02:18:04,VALID,1000.32,VALID,0,VALID,91.2808,VALID,0,VALID,24.2653,VALID,180,VALID,0.946094,
2010-04-09, 02:19:04,VALID,1000.29,VALID,0,VALID,91.1282,VALID,0,VALID,24.2866,VALID,167,VALID,1.22812,
2010-04-09, 02:20:04,VALID,1000.29,VALID,0,VALID,91.0061,VALID,0,VALID,24.2866,VALID,172,VALID,1.26094,
2010-04-09, 02:21:04,VALID,1000.29,VALID,0,VALID,90.9832,VALID,0,VALID,24.2866,VALID,181,VALID,1.12461,
2010-04-09, 02:22:04,VALID,1000.28,VALID,0,VALID,90.9298,VALID,0,VALID,24.2866,VALID,184,VALID,1.26328,
2010-04-09, 02:23:04,VALID,1000.28,VALID,0,VALID,90.8535,VALID,0,VALID,24.2653,VALID,185,VALID,1.16562,
2010-04-09, 02:24:04,VALID,1000.27,VALID,0,VALID,90.7925,VALID,0,VALID,24.3062,VALID,201,VALID,1.175,
2010-04-09, 02:25:04,VALID,1000.24,VALID,0,VALID,90.762,VALID,0,VALID,24.3257,VALID,188,VALID,0.944141,
2010-04-09, 02:26:04,VALID,1000.24,VALID,0,VALID,90.7162,VALID,0,VALID,24.3452,VALID,183,VALID,1.24023,
2010-04-09, 02:27:04,VALID,1000.21,VALID,0,VALID,90.6399,VALID,0,VALID,24.3647,VALID,205,VALID,1.42461,
2010-04-09, 02:28:04,VALID,1000.2,VALID,0,VALID,90.617,VALID,0,VALID,24.3647,VALID,200,VALID,1.02148,
2010-04-09, 02:29:04,VALID,1000.15,VALID,0,VALID,90.6094,VALID,0,VALID,24.3647,VALID,200,VALID,1.12266,
2010-04-09, 02:30:04,VALID,1000.13,VALID,0,VALID,90.4949,VALID,0,VALID,24.3842,VALID,190,VALID,0.766797,
2010-04-09, 02:31:04,VALID,1000.12,VALID,0,VALID,90.4949,VALID,0,VALID,24.3647,VALID,200,VALID,0.936719,
2010-04-09, 02:32:04,VALID,1000.12,VALID,0,VALID,90.4644,VALID,0,VALID,24.3433,VALID,199,VALID,0.876562,
2010-04-09, 02:33:04,VALID,1000.09,VALID,0,VALID,90.4034,VALID,0,VALID,24.3433,VALID,173,VALID,1.08008,
2010-04-09, 02:34:04,VALID,1000.1,VALID,0,VALID,90.3652,VALID,0,VALID,24.3452,VALID,167,VALID,1.18477,
2010-04-09, 02:35:04,VALID,1000.1,VALID,0,VALID,90.4034,VALID,0,VALID,24.3257,VALID,168,VALID,0.671875,
2010-04-09, 02:36:04,VALID,1000.1,VALID,0,VALID,90.4263,VALID,0,VALID,24.2848,VALID,158,VALID,0.795703,
2010-04-09, 02:37:04,VALID,1000.1,VALID,0,VALID,90.4949,VALID,0,VALID,24.2671,VALID,153,VALID,1.01758,
2010-04-09, 02:38:04,VALID,1000.09,VALID,0,VALID,90.5865,VALID,0,VALID,24.2281,VALID,147,VALID,0.903516,
2010-04-09, 02:39:04,VALID,1000.11,VALID,0,VALID,90.7162,VALID,0,VALID,24.2086,VALID,146,VALID,0.898047,
2010-04-09, 02:40:04,VALID,1000.08,VALID,0,VALID,90.8764,VALID,0,VALID,24.1482,VALID,146,VALID,1.00078,
2010-04-09, 02:41:04,VALID,1000.07,VALID,0,VALID,91.0061,VALID,0,VALID,24.1696,VALID,147,VALID,0.88125,
2010-04-09, 02:42:04,VALID,1000.07,VALID,0,VALID,91.0824,VALID,0,VALID,24.1305,VALID,147,VALID,0.903906,
2010-04-09, 02:43:04,VALID,1000.06,VALID,0,VALID,91.1816,VALID,0,VALID,24.1305,VALID,151,VALID,0.954297,
2010-04-09, 02:44:04,VALID,1000.05,VALID,0,VALID,91.2884,VALID,0,VALID,24.0897,VALID,154,VALID,0.746094,
2010-04-09, 02:45:04,VALID,1000.07,VALID,0,VALID,91.3266,VALID,0,VALID,24.0915,VALID,167,VALID,0.776172,
2010-04-09, 02:46:04,VALID,1000.06,VALID,0,VALID,91.4028,VALID,0,VALID,24.0915,VALID,169,VALID,0.744531,
2010-04-09, 02:47:04,VALID,1000.05,VALID,0,VALID,91.4486,VALID,0,VALID,24.111,VALID,172,VALID,0.507031,
2010-04-09, 02:48:04,VALID,1000.04,VALID,0,VALID,91.4715,VALID,0,VALID,24.0701,VALID,172,VALID,0.393359,
2010-04-09, 02:49:04,VALID,1000.09,VALID,0,VALID,91.4639,VALID,0,VALID,24.0915,VALID,172,VALID,0.345703,
2010-04-09, 02:50:04,VALID,1000.08,VALID,0,VALID,91.4639,VALID,0,VALID,24.0915,VALID,172,VALID,0,
2010-04-09, 02:51:04,VALID,1000.09,VALID,0,VALID,91.4639,VALID,0,VALID,24.0915,VALID,172,VALID,0,
2010-04-09, 02:52:04,VALID,1000.1,VALID,0,VALID,91.4715,VALID,0,VALID,24.0915,VALID,156,VALID,0,
2010-04-09, 02:53:04,VALID,1000.11,VALID,0,VALID,91.5631,VALID,0,VALID,24.072,VALID,99,VALID,0,
2010-04-09, 02:54:04,VALID,1000.12,VALID,0,VALID,91.6623,VALID,0,VALID,24.0506,VALID,94,VALID,0.877344,
2010-04-09, 02:55:04,VALID,1000.13,VALID,0,VALID,91.6851,VALID,0,VALID,24.072,VALID,94,VALID,0.946094,
2010-04-09, 02:56:04,VALID,1000.12,VALID,0,VALID,91.647,VALID,0,VALID,24.072,VALID,81,VALID,0.955469,
2010-04-09, 02:57:04,VALID,1000.12,VALID,0,VALID,91.6851,VALID,0,VALID,24.072,VALID,81,VALID,0.921484,
2010-04-09, 02:58:04,VALID,1000.12,VALID,0,VALID,91.6623,VALID,0,VALID,24.0701,VALID,81,VALID,0.805469,
2010-04-09, 02:59:04,VALID,1000.13,VALID,0,VALID,91.6851,VALID,0,VALID,24.072,VALID,78,VALID,0.791016,
2010-04-09, 03:00:04,VALID,1000.11,VALID,0,VALID,91.7157,VALID,0,VALID,24.0525,VALID,71,VALID,0.839844,
2010-04-09, 03:01:04,VALID,1000.13,VALID,0,VALID,91.6699,VALID,0,VALID,24.0525,VALID,65,VALID,0.639063,
2010-04-09, 03:02:04,VALID,1000.12,VALID,0,VALID,91.6851,VALID,0,VALID,24.0329,VALID,45,VALID,0.709766,
2010-04-09, 03:03:04,VALID,1000.12,VALID,0,VALID,91.6928,VALID,0,VALID,24.0134,VALID,38,VALID,0.889453,
2010-04-09, 03:04:04,VALID,1000.12,VALID,0,VALID,91.708,VALID,0,VALID,24.0134,VALID,30,VALID,0.763672,
2010-04-09, 03:05:04,VALID,1000.09,VALID,0,VALID,91.7385,VALID,0,VALID,23.9744,VALID,30,VALID,0.760156,
2010-04-09, 03:06:04,VALID,1000.1,VALID,0,VALID,91.8377,VALID,0,VALID,23.9531,VALID,38,VALID,1.00312,
2010-04-09, 03:07:04,VALID,1000.12,VALID,0,VALID,91.9064,VALID,0,VALID,23.9354,VALID,38,VALID,0.642578,
2010-04-09, 03:08:04,VALID,1000.12,VALID,0,VALID,91.9064,VALID,0,VALID,23.9159,VALID,38,VALID,0.0785156,
2010-04-09, 03:09:04,VALID,1000.14,VALID,0,VALID,91.9293,VALID,0,VALID,23.8963,VALID,38,VALID,0.146484,
2010-04-09, 03:10:04,VALID,1000.12,VALID,0,VALID,91.998,VALID,0,VALID,23.8963,VALID,38,VALID,0.540625,
2010-04-09, 03:11:04,VALID,1000.15,VALID,0,VALID,92.059,VALID,0,VALID,23.8768,VALID,38,VALID,0.636719,
2010-04-09, 03:12:04,VALID,1000.18,VALID,0,VALID,92.1582,VALID,0,VALID,23.875,VALID,38,VALID,0.935156,
2010-04-09, 03:13:04,VALID,1000.19,VALID,0,VALID,92.2116,VALID,0,VALID,23.8768,VALID,37,VALID,0.864453,
2010-04-09, 03:14:04,VALID,1000.17,VALID,0,VALID,92.2421,VALID,0,VALID,23.8768,VALID,37,VALID,0.785156,
2010-04-09, 03:15:04,VALID,1000.15,VALID,0,VALID,92.2955,VALID,0,VALID,23.8768,VALID,37,VALID,0.876562,
2010-04-09, 03:16:04,VALID,1000.15,VALID,0,VALID,92.3031,VALID,0,VALID,23.8573,VALID,37,VALID,0.692187,
2010-04-09, 03:17:04,VALID,1000.13,VALID,0,VALID,92.3031,VALID,0,VALID,23.8573,VALID,37,VALID,0.686719,
2010-04-09, 03:18:04,VALID,1000.13,VALID,0,VALID,92.3337,VALID,0,VALID,23.836,VALID,37,VALID,0.615234,
2010-04-09, 03:19:04,VALID,1000.13,VALID,0,VALID,92.3566,VALID,0,VALID,23.8768,VALID,38,VALID,0.475391,
2010-04-09, 03:20:04,VALID,1000.12,VALID,0,VALID,92.3642,VALID,0,VALID,23.8768,VALID,38,VALID,0.550781,
2010-04-09, 03:21:04,VALID,1000.12,VALID,0,VALID,92.3794,VALID,0,VALID,23.8555,VALID,38,VALID,0.694141,
2010-04-09, 03:22:04,VALID,1000.13,VALID,0,VALID,92.3947,VALID,0,VALID,23.8963,VALID,38,VALID,0.964453,
2010-04-09, 03:23:04,VALID,1000.09,VALID,0,VALID,92.4252,VALID,0,VALID,23.875,VALID,41,VALID,1.10469,
2010-04-09, 03:24:04,VALID,1000.11,VALID,0,VALID,92.3794,VALID,0,VALID,23.8963,VALID,44,VALID,1.12461,
2010-04-09, 03:25:04,VALID,1000.12,VALID,0,VALID,92.3718,VALID,0,VALID,23.8945,VALID,48,VALID,1.02383,
2010-04-09, 03:26:04,VALID,1000.14,VALID,0,VALID,92.3718,VALID,0,VALID,23.8945,VALID,50,VALID,1.04297,
2010-04-09, 03:27:04,VALID,1000.13,VALID,0,VALID,92.4405,VALID,0,VALID,23.8945,VALID,49,VALID,1.07383,
2010-04-09, 03:28:04,VALID,1000.11,VALID,0,VALID,92.4405,VALID,0,VALID,23.8945,VALID,49,VALID,1.14219,
2010-04-09, 03:29:04,VALID,1000.12,VALID,0,VALID,92.5015,VALID,0,VALID,23.9159,VALID,49,VALID,1.03164,
2010-04-09, 03:30:04,VALID,1000.11,VALID,0,VALID,92.5015,VALID,0,VALID,23.8945,VALID,49,VALID,0.958984,
2010-04-09, 03:31:04,VALID,1000.11,VALID,0,VALID,92.5015,VALID,0,VALID,23.8963,VALID,49,VALID,0.692578,
2010-04-09, 03:32:04,VALID,1000.11,VALID,0,VALID,92.5091,VALID,0,VALID,23.8963,VALID,41,VALID,0.519922,
2010-04-09, 03:33:04,VALID,1000.13,VALID,0,VALID,92.5015,VALID,0,VALID,23.875,VALID,37,VALID,0.691406,
2010-04-09, 03:34:04,VALID,1000.14,VALID,0,VALID,92.5091,VALID,0,VALID,23.8555,VALID,37,VALID,0.358203,
2010-04-09, 03:35:04,VALID,1000.12,VALID,0,VALID,92.5244,VALID,0,VALID,23.8573,VALID,36,VALID,0.373047,
2010-04-09, 03:36:04,VALID,1000.1,VALID,0,VALID,92.5397,VALID,0,VALID,23.836,VALID,36,VALID,0.301172,
2010-04-09, 03:37:04,VALID,1000.1,VALID,0,VALID,92.5397,VALID,0,VALID,23.836,VALID,36,VALID,0.345703,
2010-04-09, 03:38:04,VALID,1000.11,VALID,0,VALID,92.5168,VALID,0,VALID,23.8378,VALID,36,VALID,0,
2010-04-09, 03:39:04,VALID,1000.15,VALID,0,VALID,92.5397,VALID,0,VALID,23.8183,VALID,36,VALID,0,
2010-04-09, 03:40:04,VALID,1000.16,VALID,0,VALID,92.532,VALID,0,VALID,23.8165,VALID,36,VALID,0,
2010-04-09, 03:41:04,VALID,1000.19,VALID,0,VALID,92.5397,VALID,0,VALID,23.7988,VALID,36,VALID,0,
2010-04-09, 03:42:04,VALID,1000.22,VALID,0,VALID,92.5549,VALID,0,VALID,23.797,VALID,36,VALID,0,
2010-04-09, 03:43:04,VALID,1000.19,VALID,0,VALID,92.5702,VALID,0,VALID,23.8183,VALID,36,VALID,0,
2010-04-09, 03:44:04,VALID,1000.23,VALID,0,VALID,92.6083,VALID,0,VALID,23.8183,VALID,36,VALID,0,
2010-04-09, 03:45:04,VALID,1000.21,VALID,0,VALID,92.6083,VALID,0,VALID,23.797,VALID,36,VALID,0,
2010-04-09, 03:46:04,VALID,1000.23,VALID,0,VALID,92.5854,VALID,0,VALID,23.8378,VALID,36,VALID,0,
2010-04-09, 03:47:04,VALID,1000.18,VALID,0,VALID,92.5854,VALID,0,VALID,23.8183,VALID,36,VALID,0,
2010-04-09, 03:48:04,VALID,1000.21,VALID,0,VALID,92.6083,VALID,0,VALID,23.8183,VALID,36,VALID,0,
2010-04-09, 03:49:04,VALID,1000.22,VALID,0,VALID,92.5931,VALID,0,VALID,23.8378,VALID,36,VALID,0,
2010-04-09, 03:50:04,VALID,1000.22,VALID,0,VALID,92.616,VALID,0,VALID,23.8378,VALID,36,VALID,0,
2010-04-09, 03:51:04,VALID,1000.21,VALID,0,VALID,92.5931,VALID,0,VALID,23.8183,VALID,36,VALID,0,